{"data":{"norad_id":52281,"epoch":"2026-09-19T20:19:01.833600Z","epoch_age_seconds":116016,"freshness":"FRESH","line1":"1 52281U 22041W   26262.84654900 -.00000223  00000+0  45592-5 0  9998","line2":"2 52281  53.1611 310.8156 0001204  85.2030 274.9110 15.33546332243767","mean_motion":15.33546332,"eccentricity":0.0001204,"inclination_deg":53.1611,"raan_deg":310.8156,"arg_perigee_deg":85.203,"mean_anomaly_deg":274.911,"bstar":4.5592e-6,"rev_number":24376,"period_min":93.899999625183,"perigee_km":464.41775554552,"apogee_km":466.06564113608,"semimajor_km":6843.3786983408,"source":"CELESTRAK","updated_at":"2026-09-20T09:00:40.014640Z"}}